User: anonymous   Login
Location: Unspecified
(0.0000°N, 0.0000°E)
Time: 21:34:06
(UTC+00:00)
Language:

GOES 1 - Orbit

View from above orbital plane
View from above orbital plane
View from above satellite
View from above satellite

Ground track
Ground track

The orbit data is extracted from the following two-line orbital elements,

1  8366U 75100A   18048.29587175 -.00000089 +00000-0 +00000-0 0  9999
2  8366 011.6355 315.5660 0006082 316.3401 236.4522 01.00227080154707
Epoch (UTC): 17 February 2018 07:06:03
Eccentricity: 0.0006082
inclination: 11.6355°
perigee height: 35773 km
apogee height: 35824 km
right ascension of ascending node: 315.5660°
argument of perigee: 316.3401°
revolutions per day: 1.00227080
mean anomaly at epoch: 236.4522°
orbit number at epoch: 15470

The dashed part of the orbit path shows where the satellite is in the earth's shadow,  

DLR